• In Kazakhstan
  • List of Countries
  • For 7 days
  • Water Temperature
  • Satellite Maps
  • Weather Map
  • News
  • Weather Widgets
  • user-avatar
    Login

    Hourly Weather Al-Budajji

    Today, 26 June, Wednesday

    Time Temperature Precipitation Wind Pressure Humidity
    00:00 +35°C° 0 mm 2 mps 753 mmHg 72%
    01:00 +34°C° 0 mm 1 mps 753 mmHg 72%
    02:00 +34°C° 0 mm 1 mps 752 mmHg 69%
    03:00 +35°C° 0 mm 1 mps 752 mmHg 67%
    04:00 +36°C° 0 mm 2 mps 752 mmHg 64%
    05:00 +36°C° 0 mm 2 mps 753 mmHg 65%
    06:00 +35°C° 0 mm 1 mps 753 mmHg 66%
    07:00 +34°C° 0 mm 1 mps 754 mmHg 67%
    08:00 +35°C° 0 mm 2 mps 754 mmHg 69%
    09:00 +35°C° 0 mm 2 mps 754 mmHg 70%
    10:00 +35°C° 0 mm 3 mps 754 mmHg 71%
    11:00 +35°C° 0 mm 3 mps 754 mmHg 72%
    12:00 +36°C° 0 mm 2 mps 754 mmHg 73%
    13:00 +36°C° 0 mm 2 mps 754 mmHg 74%
    14:00 +36°C° 0 mm 2 mps 753 mmHg 74%
    15:00 +36°C° 0 mm 2 mps 753 mmHg 74%
    16:00 +36°C° 0 mm 2 mps 752 mmHg 73%
    17:00 +36°C° 0 mm 2 mps 752 mmHg 75%
    18:00 +35°C° 0 mm 1 mps 752 mmHg 76%
    19:00 +34°C° 0 mm 1 mps 752 mmHg 78%
    20:00 +35°C° 0 mm 2 mps 752 mmHg 77%
    21:00 +35°C° 0 mm 3 mps 752 mmHg 76%
    22:00 +35°C° 0 mm 4 mps 752 mmHg 76%
    23:00 +34°C° 0 mm 4 mps 752 mmHg 78%

    Tomorrow, 27 June, Thursday

    Time Temperature Precipitation Wind Pressure Humidity
    00:00 +34°C° 0 mm 3 mps 752 mmHg 79%
    01:00 +34°C° 0 mm 3 mps 751 mmHg 81%
    02:00 +34°C° 0 mm 3 mps 751 mmHg 79%
    03:00 +34°C° 0 mm 3 mps 751 mmHg 77%
    04:00 +35°C° 0 mm 3 mps 751 mmHg 74%
    05:00 +35°C° 0 mm 3 mps 751 mmHg 74%
    06:00 +35°C° 0 mm 3 mps 752 mmHg 74%
    07:00 +34°C° 0 mm 3 mps 752 mmHg 74%
    08:00 +35°C° 0 mm 2 mps 752 mmHg 74%
    09:00 +35°C° 0 mm 2 mps 752 mmHg 74%
    10:00 +34°C° 0 mm 1 mps 752 mmHg 74%
    11:00 +34°C° 0 mm 1 mps 752 mmHg 68%
    12:00 +35°C° 0 mm 1 mps 752 mmHg 61%
    13:00 +35°C° 0 mm 1 mps 752 mmHg 54%
    14:00 +36°C° 0 mm 1 mps 751 mmHg 54%
    15:00 +36°C° 0 mm 1 mps 751 mmHg 53%
    16:00 +36°C° 0 mm 1 mps 750 mmHg 52%
    17:00 +36°C° 0 mm 1 mps 750 mmHg 59%
    18:00 +35°C° 0 mm 1 mps 750 mmHg 66%
    19:00 +33°C° 0 mm 0 mps 750 mmHg 72%
    20:00 +35°C° 0 mm 1 mps 750 mmHg 71%
    21:00 +35°C° 0 mm 1 mps 750 mmHg 70%
    22:00 +34°C° 0 mm 1 mps 750 mmHg 69%
    23:00 +34°C° 0 mm 1 mps 750 mmHg 67%

    Day after tomorrow, 28 June, Friday

    Time Temperature Precipitation Wind Pressure Humidity
    00:00 +35°C° 0 mm 1 mps 750 mmHg 65%
    01:00 +35°C° 0 mm 1 mps 749 mmHg 64%
    02:00 +35°C° 0 mm 1 mps 749 mmHg 65%
    03:00 +32°C° 0 mm 0 mps 749 mmHg 67%
    04:00 +32°C° 0 mm 0 mps 749 mmHg 69%
    05:00 +32°C° 0 mm 0 mps 749 mmHg 68%
    06:00 +34°C° 0 mm 1 mps 749 mmHg 66%
    07:00 +34°C° 0 mm 1 mps 750 mmHg 64%
    08:00 +35°C° 0 mm 1 mps 750 mmHg 65%
    09:00 +33°C° 0 mm 0 mps 750 mmHg 66%
    10:00 +33°C° 0 mm 0 mps 751 mmHg 67%
    11:00 +33°C° 0 mm 0 mps 750 mmHg 66%
    12:00 +34°C° 0 mm 0 mps 750 mmHg 66%
    13:00 +34°C° 0 mm 0 mps 750 mmHg 65%
    14:00 +34°C° 0 mm 0 mps 750 mmHg 64%
    15:00 +35°C° 0 mm 0 mps 749 mmHg 63%
    16:00 +35°C° 0 mm 0 mps 749 mmHg 61%
    17:00 +35°C° 0 mm 0 mps 749 mmHg 62%
    18:00 +35°C° 0 mm 0 mps 749 mmHg 63%
    19:00 +35°C° 0 mm 0 mps 749 mmHg 64%
    20:00 +34°C° 0 mm 0 mps 749 mmHg 62%
    21:00 +36°C° 0 mm 1 mps 749 mmHg 60%
    22:00 +35°C° 0 mm 1 mps 749 mmHg 58%
    23:00 +36°C° 0 mm 1 mps 749 mmHg 55%

    29 June, Saturday

    Time Temperature Precipitation Wind Pressure Humidity
    00:00 +37°C° 0 mm 2 mps 749 mmHg 52%
    01:00 +37°C° 0 mm 2 mps 748 mmHg 49%
    02:00 +37°C° 0 mm 2 mps 748 mmHg 50%
    03:00 +37°C° 0 mm 2 mps 748 mmHg 50%
    04:00 +37°C° 0 mm 2 mps 748 mmHg 51%
    05:00 +37°C° 0 mm 3 mps 749 mmHg 51%
    06:00 +37°C° 0 mm 3 mps 749 mmHg 50%
    07:00 +37°C° 0 mm 3 mps 750 mmHg 50%
    08:00 +37°C° 0 mm 2 mps 750 mmHg 54%
    09:00 +37°C° 0 mm 2 mps 750 mmHg 58%
    10:00 +35°C° 0 mm 1 mps 751 mmHg 62%
    11:00 +37°C° 0 mm 2 mps 750 mmHg 59%
    12:00 +37°C° 0 mm 2 mps 750 mmHg 56%
    13:00 +38°C° 0 mm 3 mps 750 mmHg 53%
    14:00 +38°C° 0 mm 3 mps 749 mmHg 52%
    15:00 +38°C° 0 mm 4 mps 749 mmHg 50%
    16:00 +38°C° 0 mm 4 mps 748 mmHg 48%
    17:00 +38°C° 0 mm 4 mps 748 mmHg 50%
    18:00 +38°C° 0 mm 4 mps 748 mmHg 52%
    19:00 +38°C° 0 mm 4 mps 748 mmHg 53%
    20:00 +37°C° 0 mm 4 mps 748 mmHg 57%
    21:00 +37°C° 0 mm 3 mps 748 mmHg 60%
    22:00 +36°C° 0 mm 3 mps 749 mmHg 63%
    23:00 +36°C° 0 mm 2 mps 748 mmHg 64%

    30 June, Sunday

    Time Temperature Precipitation Wind Pressure Humidity
    00:00 +36°C° 0 mm 2 mps 748 mmHg 65%
    01:00 +36°C° 0 mm 2 mps 748 mmHg 66%
    02:00 +36°C° 0 mm 2 mps 748 mmHg 63%
    03:00 +36°C° 0 mm 3 mps 748 mmHg 61%
    04:00 +37°C° 0 mm 4 mps 748 mmHg 58%
    05:00 +36°C° 0 mm 5 mps 748 mmHg 59%
    06:00 +36°C° 0 mm 6 mps 748 mmHg 59%
    07:00 +36°C° 0 mm 7 mps 749 mmHg 60%
    08:00 +36°C° 0 mm 7 mps 749 mmHg 60%
    09:00 +36°C° 0 mm 7 mps 749 mmHg 61%
    10:00 +36°C° 0 mm 7 mps 750 mmHg 61%
    11:00 +36°C° 0 mm 7 mps 749 mmHg 62%
    12:00 +36°C° 0 mm 6 mps 749 mmHg 63%
    13:00 +36°C° 0 mm 5 mps 749 mmHg 65%
    14:00 +36°C° 0 mm 5 mps 749 mmHg 66%
    15:00 +36°C° 0 mm 5 mps 748 mmHg 67%
    16:00 +36°C° 0 mm 5 mps 748 mmHg 68%
    17:00 +36°C° 0 mm 5 mps 748 mmHg 68%
    18:00 +36°C° 0 mm 5 mps 748 mmHg 67%
    19:00 +36°C° 0 mm 4 mps 748 mmHg 67%
    20:00 +36°C° 0 mm 5 mps 748 mmHg 66%
    21:00 +36°C° 0 mm 5 mps 748 mmHg 65%
    22:00 +38°C° 0 mm 6 mps 748 mmHg 64%
    23:00 +38°C° 0 mm 6 mps 748 mmHg 63%

    1 July, Monday

    Time Temperature Precipitation Wind Pressure Humidity
    00:00 +38°C° 0 mm 7 mps 748 mmHg 62%
    01:00 +38°C° 0 mm 7 mps 748 mmHg 61%
    02:00 +38°C° 0 mm 7 mps 747 mmHg 60%
    03:00 +38°C° 0 mm 7 mps 747 mmHg 60%
    04:00 +38°C° 0 mm 7 mps 747 mmHg 59%
    05:00 +38°C° 0 mm 7 mps 747 mmHg 59%
    06:00 +38°C° 0 mm 7 mps 747 mmHg 60%
    07:00 +38°C° 0 mm 7 mps 748 mmHg 60%
    08:00 +38°C° 0 mm 6 mps 748 mmHg 59%
    09:00 +38°C° 0 mm 6 mps 748 mmHg 58%
    10:00 +37°C° 0 mm 5 mps 749 mmHg 57%
    11:00 +37°C° 0 mm 5 mps 748 mmHg 58%
    12:00 +37°C° 0 mm 5 mps 748 mmHg 58%
    13:00 +37°C° 0 mm 4 mps 748 mmHg 59%
    14:00 +37°C° 0 mm 5 mps 748 mmHg 59%
    15:00 +38°C° 0 mm 6 mps 748 mmHg 60%
    16:00 +38°C° 0 mm 7 mps 747 mmHg 61%
    17:00 +38°C° 0 mm 7 mps 747 mmHg 62%
    18:00 +38°C° 0 mm 8 mps 747 mmHg 62%
    19:00 +38°C° 0 mm 8 mps 747 mmHg 63%
    20:00 +38°C° 0 mm 9 mps 747 mmHg 62%
    21:00 +38°C° 0 mm 10 mps 747 mmHg 61%
    22:00 +38°C° 0 mm 10 mps 748 mmHg 60%
    23:00 +38°C° 0 mm 10 mps 747 mmHg 61%
    Show more